Location: Caltech
(34.1382°N, 118.1253°W)
Time: 14:17:02
(UTC-07:00)

ASTRO E2 - Visible Passes

Search period start: 02 September 2014 00:00
Search period end: 12 September 2014 00:00
Orbit: 535 x 542 km, 31.4° (Epoch: 31 August)

Date Brightness Start Highest point End Pass type
(mag) Time Alt. Az. Time Alt. Az. Time Alt. Az.
04 Sep 5.4 05:58:16 10° S 05:59:33 11° SSE 06:00:51 10° SE visible
05 Sep 5.2 05:46:43 10° S 05:48:59 14° SSE 05:51:16 10° ESE visible
06 Sep 4.9 05:35:36 10° SSW 05:38:26 18° SSE 05:41:16 10° ESE visible
07 Sep 4.6 05:25:08 12° SSW 05:27:52 22° SSE 05:31:06 10° ESE visible
08 Sep 4.3 05:15:22 18° SSW 05:17:19 26° SSE 05:20:48 10° ESE visible
09 Sep 4.0 05:05:32 26° SSW 05:06:46 31° SSE 05:10:27 10° E visible
10 Sep 3.6 04:55:41 35° S 04:56:14 37° SSE 05:00:02 10° E visible
11 Sep 3.4 04:45:48 42° SSE 04:45:48 42° SSE 04:49:36 10° E visible
